Simultaneous Nadir Overpasses (SNOs) Predictions

Prediction of SNOs between AQUA and NOAA-19 Satellite Orbit:

Table of predicted SNOs for the next 14.0 days since TLE Epoch: 11/5/2011
Index Date Time (AQUA) AQUA Lat,Lon NOAA-19 Lat,Lon Distance(km) Time Diff (sec)
1 11/07/2011 18:24:28 54.56, 119.31 54.56, 119.31 0.10 44
2 11/09/2011 22:21:12 -47.99,-122.35 -47.99,-122.33 1.72 10
3 11/12/2011 03:04:10 -52.58, 168.56 -52.58, 168.55 0.46 28
4 11/14/2011 07:47:00 -57.56, 100.10 -57.56, 100.12 1.32 66
5 11/16/2011 10:58:40 -35.13, 44.89 -35.13, 44.89 0.23 72




NCC Satellite Simultaneous Nadir Overpasses (SNOs) Prediction Service
